QPF
0.01 0.02 0.02 0.03 0.03 0.02 0.02 0.01 0.01 0.01 0.01 0.01 0.01 0.01 0.03 0.04 0.03 0.03 0.02 0.02 0.02 0.01 0.01 0.01 0.02 0.02 0.02 0.03 0.04 0.06 0.07 0.08 0.06 0.05 0.06 0.06 0.04 0.03 0.02 0.01 0.02 0.03 0.03
0.03 0.03 0.03 0.04 0.03 0.02 0.02 0.02 0.02 0.02 0.02 0.01 0.01 0.01 0.02 0.03 0.04 0.03 0.02 0.03 0.03 0.02 0.01 0.01 0.02 0.02 0.03 0.05 0.06 0.06 0.06 0.06 0.06 0.05 0.05 0.06 0.06 0.04 0.03 0.02 0.02 0.03 0.03
0.05 0.05 0.04 0.04 0.04 0.04 0.05 0.05 0.06 0.05 0.04 0.03 0.03 0.02 0.03 0.04 0.06 0.06 0.05 0.04 0.03 0.03 0.02 0.02 0.03 0.02 0.02 0.03 0.03 0.04 0.06 0.07 0.06 0.05 0.05 0.04 0.03 0.04 0.04 0.03 0.02 0.02 0.03
0.05 0.05 0.05 0.05 0.04 0.03 0.03 0.04 0.04 0.05 0.06 0.05 0.05 0.05 0.04 0.03 0.04 0.06 0.06 0.05 0.04 0.04 0.04 0.03 0.03 0.02 0.02 0.01 0.01 0.03 0.04 0.04 0.04 0.04 0.03 0.03 0.02 0.03 0.02 0.02 0.02 0.02 0.02
0.07 0.05 0.04 0.04 0.05 0.04 0.05 0.04 0.04 0.05 0.04 0.04 0.04 0.03 0.02 0.01 0.02 0.02 0.03 0.04 0.04 0.05 0.06 0.04 0.03 0.02 0.02 0.02 0.02 0.02 0.03 0.03 0.03 0.03 0.03 0.03 0.03 0.04 0.05 0.06 0.05 0.04 0.03
0.11 0.08 0.05 0.04 0.04 0.04 0.04 0.04 0.05 0.06 0.06 0.05 0.03 0.02 0.01 0.00 0.01 0.01 0.02 0.02 0.03 0.03 0.05 0.05 0.02 0.01 0.01 0.02 0.03 0.02 0.03 0.04 0.04 0.04 0.04 0.04 0.04 0.03 0.04 0.06 0.06 0.05 0.03
0.07 0.07 0.06 0.05 0.04 0.04 0.03 0.03 0.05 0.06 0.06 0.07 0.05 0.03 0.02 0.01 0.01 0.01 0.01 0.02 0.03 0.03 0.03 0.03 0.03 0.01 0.01 0.02 0.03 0.03 0.03 0.03 0.03 0.04 0.04 0.05 0.04 0.03 0.02 0.02 0.02 0.02 0.02
0.07 0.07 0.07 0.05 0.05 0.05 0.05 0.05 0.06 0.07 0.07 0.06 0.06 0.05 0.03 0.03 0.02 0.01 0.02 0.02 0.03 0.02 0.03 0.03 0.04 0.03 0.03 0.02 0.02 0.03 0.02 0.02 0.02 0.02 0.03 0.03 0.03 0.04 0.04 0.03 0.03 0.03 0.02
0.09 0.08 0.06 0.05 0.05 0.05 0.05 0.05 0.05 0.07 0.08 0.09 0.08 0.06 0.04 0.03 0.04 0.04 0.03 0.02 0.02 0.02 0.02 0.02 0.03 0.03 0.02 0.01 0.02 0.02 0.02 0.03 0.03 0.03 0.03 0.03 0.04 0.05 0.05 0.05 0.04 0.03 0.02
0.08 0.09 0.09 0.08 0.07 0.07 0.07 0.07 0.07 0.09 0.10 0.11 0.11 0.09 0.07 0.06 0.06 0.06 0.03 0.02 0.01 0.01 0.02 0.01 0.02 0.02 0.02 0.02 0.02 0.03 0.02 0.02 0.02 0.02 0.02 0.02 0.02 0.03 0.04 0.04 0.04 0.04 0.03
0.11 0.11 0.13 0.11 0.10 0.09 0.08 0.08 0.10 0.11 0.12 0.11 0.10 0.10 0.09 0.07 0.06 0.04 0.03 0.02 0.02 0.01 0.01 0.01 0.02 0.02 0.02 0.03 0.03 0.02 0.02 0.01 0.01 0.01 0.01 0.01 0.01 0.01 0.02 0.03 0.03 0.03 0.03
0.10 0.12 0.14 0.16 0.12 0.09 0.08 0.06 0.06 0.06 0.08 0.10 0.10 0.10 0.10 0.09 0.08 0.07 0.05 0.04 0.03 0.02 0.02 0.02 0.02 0.02 0.02 0.02 0.02 0.02 0.02 0.02 0.01 0.01 0.01 0.01 0.01 0.01 0.02 0.03 0.04 0.04 0.03
0.05 0.07 0.10 0.14 0.11 0.09 0.08 0.08 0.08 0.06 0.05 0.04 0.04 0.05 0.06 0.06 0.05 0.05 0.04 0.04 0.04 0.05 0.05 0.04 0.04 0.04 0.03 0.03 0.03 0.03 0.03 0.03 0.02 0.02 0.01 0.01 0.01 0.01 0.02 0.04 0.05 0.04 0.04
0.06 0.06 0.07 0.08 0.09 0.09 0.07 0.05 0.05 0.05 0.04 0.03 0.03 0.02 0.02 0.02 0.02 0.02 0.04 0.05 0.05 0.05 0.06 0.06 0.06 0.05 0.04 0.03 0.03 0.03 0.03 0.02 0.02 0.02 0.01 0.01 0.02 0.02 0.02 0.03 0.04 0.04 0.03
0.08 0.06 0.05 0.06 0.07 0.08 0.07 0.06 0.04 0.03 0.03 0.03 0.03 0.02 0.02 0.02 0.03 0.03 0.04 0.05 0.05 0.05 0.05 0.04 0.03 0.03 0.02 0.02 0.02 0.01 0.01 0.01 0.01 0.02 0.02 0.01 0.01 0.01 0.02 0.02 0.04 0.04 0.03
0.06 0.05 0.05 0.05 0.05 0.05 0.05 0.05 0.05 0.04 0.04 0.04 0.04 0.04 0.03 0.03 0.04 0.03 0.03 0.04 0.05 0.05 0.03 0.02 0.01 0.01 0.01 0.01 0.01 0.01 0.01 0.01 0.01 0.01 0.02 0.02 0.01 0.01 0.01 0.02 0.03 0.04 0.03
0.04 0.04 0.06 0.06 0.05 0.05 0.04 0.05 0.05 0.05 0.05 0.04 0.04 0.04 0.04 0.04 0.04 0.05 0.06 0.05 0.05 0.04 0.03 0.02 0.01 0.01 0.01 0.01 0.01 0.01 0.01 0.01 0.01 0.01 0.02 0.02 0.01 0.01 0.02 0.02 0.02 0.04 0.04
0.03 0.03 0.03 0.04 0.05 0.04 0.03 0.04 0.05 0.05 0.05 0.04 0.04 0.04 0.04 0.04 0.04 0.05 0.07 0.06 0.05 0.04 0.03 0.02 0.01 0.01 0.01 0.01 0.01 0.01 0.01 0.01 0.01 0.01 0.01 0.01 0.02 0.02 0.03 0.03 0.04 0.05 0.05
0.01 0.02 0.02 0.03 0.03 0.04 0.04 0.04 0.05 0.05 0.05 0.06 0.05 0.04 0.04 0.04 0.04 0.05 0.05 0.04 0.04 0.04 0.03 0.02 0.01 0.01 0.01 0.01 0.01 0.01 0.00 0.01 0.01 0.01 0.02 0.02 0.03 0.03 0.04 0.05 0.06 0.08 0.08
0.01 0.01 0.01 0.02 0.02 0.03 0.03 0.04 0.04 0.05 0.04 0.05 0.05 0.07 0.08 0.07 0.06 0.05 0.04 0.04 0.04 0.04 0.04 0.03 0.02 0.01 0.01 0.02 0.02 0.02 0.02 0.02 0.03 0.03 0.03 0.03 0.04 0.04 0.04 0.04 0.05 0.06 0.08
0.01 0.01 0.01 0.01 0.01 0.02 0.03 0.03 0.04 0.04 0.03 0.03 0.04 0.04 0.06 0.05 0.04 0.03 0.03 0.03 0.03 0.03 0.03 0.03 0.02 0.01 0.01 0.01 0.02 0.02 0.02 0.02 0.03 0.03 0.03 0.03 0.03 0.03 0.03 0.04 0.04 0.04 0.04
0.01 0.01 0.01 0.01 0.01 0.01 0.02 0.02 0.02 0.03 0.03 0.04 0.03 0.03 0.04 0.04 0.03 0.03 0.02 0.02 0.02 0.02 0.04 0.04 0.03 0.03 0.02 0.02 0.01 0.01 0.01 0.01 0.02 0.03 0.03 0.03 0.03 0.03 0.03 0.03 0.03 0.03 0.03
0.01 0.01 0.01 0.01 0.01 0.01 0.01 0.02 0.02 0.02 0.02 0.03 0.04 0.03 0.02 0.02 0.03 0.03 0.03 0.03 0.02 0.03 0.03 0.02 0.02 0.02 0.01 0.01 0.02 0.01 0.01 0.01 0.02 0.02 0.03 0.04 0.04 0.03 0.03 0.02 0.02 0.02 0.03
0.01 0.01 0.01 0.01 0.01 0.01 0.01 0.01 0.02 0.02 0.02 0.02 0.02 0.03 0.02 0.02 0.02 0.02 0.03 0.03 0.04 0.04 0.04 0.02 0.02 0.02 0.01 0.01 0.01 0.01 0.01 0.02 0.02 0.03 0.03 0.03 0.03 0.02 0.03 0.03 0.03 0.03 0.03
0.01 0.01 0.01 0.01 0.01 0.01 0.01 0.02 0.02 0.03 0.03 0.02 0.02 0.02 0.02 0.02 0.02 0.02 0.03 0.03 0.04 0.06 0.05 0.03 0.02 0.02 0.01 0.01 0.01 0.01 0.01 0.01 0.01 0.01 0.02 0.02 0.02 0.03 0.02 0.03 0.03 0.04 0.04
0.02 0.02 0.02 0.02 0.01 0.01 0.01 0.01 0.02 0.03 0.03 0.03 0.03 0.02 0.02 0.02 0.02 0.02 0.03 0.03 0.04 0.05 0.05 0.03 0.02 0.01 0.01 0.00 0.00 0.00 0.01 0.01 0.01 0.01 0.02 0.03 0.03 0.03 0.03 0.04 0.03 0.03 0.04
MSLP
1011.73 1012.40 1013.02 1013.58 1014.02 1014.37 1014.62 1014.82 1014.98 1015.15 1015.33 1015.52 1015.71 1015.89 1016.04 1016.13 1016.17 1016.17 1016.15 1016.14 1016.18 1016.27 1016.43 1016.65 1016.91 1017.17 1017.43 1017.64 1017.78 1017.86 1017.86 1017.78 1017.65 1017.45 1017.19 1016.86 1016.48 1016.04 1015.56 1015.03 1014.49 1013.96 1013.46
1011.40 1012.06 1012.67 1013.21 1013.64 1013.97 1014.22 1014.41 1014.58 1014.75 1014.94 1015.14 1015.35 1015.54 1015.70 1015.82 1015.88 1015.90 1015.90 1015.90 1015.93 1016.01 1016.14 1016.34 1016.58 1016.84 1017.09 1017.32 1017.51 1017.64 1017.70 1017.71 1017.65 1017.53 1017.34 1017.09 1016.77 1016.38 1015.94 1015.46 1014.95 1014.45 1013.97
1011.08 1011.72 1012.31 1012.83 1013.25 1013.57 1013.81 1014.01 1014.18 1014.36 1014.56 1014.78 1015.00 1015.21 1015.39 1015.51 1015.59 1015.62 1015.63 1015.63 1015.65 1015.72 1015.83 1016.01 1016.22 1016.47 1016.73 1016.97 1017.18 1017.35 1017.47 1017.54 1017.55 1017.50 1017.39 1017.21 1016.95 1016.63 1016.25 1015.83 1015.37 1014.91 1014.46
1010.69 1011.31 1011.88 1012.37 1012.77 1013.09 1013.34 1013.55 1013.75 1013.96 1014.18 1014.43 1014.67 1014.90 1015.10 1015.24 1015.32 1015.36 1015.36 1015.35 1015.36 1015.41 1015.51 1015.66 1015.85 1016.08 1016.33 1016.57 1016.80 1017.00 1017.16 1017.27 1017.34 1017.35 1017.30 1017.19 1017.01 1016.76 1016.45 1016.08 1015.69 1015.27 1014.86
1010.16 1010.75 1011.28 1011.75 1012.14 1012.46 1012.73 1012.98 1013.22 1013.49 1013.77 1014.06 1014.35 1014.61 1014.82 1014.97 1015.06 1015.09 1015.09 1015.07 1015.06 1015.08 1015.16 1015.28 1015.45 1015.66 1015.90 1016.13 1016.36 1016.57 1016.75 1016.89 1016.99 1017.05 1017.05 1017.00 1016.89 1016.72 1016.48 1016.19 1015.85 1015.49 1015.11
1009.45 1009.99 1010.48 1010.92 1011.29 1011.63 1011.94 1012.24 1012.56 1012.90 1013.26 1013.62 1013.97 1014.27 1014.52 1014.68 1014.78 1014.80 1014.78 1014.74 1014.71 1014.71 1014.76 1014.86 1015.02 1015.21 1015.42 1015.65 1015.86 1016.07 1016.25 1016.40 1016.53 1016.62 1016.67 1016.67 1016.62 1016.51 1016.35 1016.13 1015.86 1015.55 1015.21
1008.57 1009.03 1009.46 1009.85 1010.22 1010.57 1010.92 1011.30 1011.70 1012.14 1012.60 1013.05 1013.48 1013.84 1014.12 1014.31 1014.41 1014.43 1014.40 1014.34 1014.29 1014.28 1014.31 1014.39 1014.52 1014.70 1014.90 1015.11 1015.32 1015.51 1015.69 1015.85 1015.98 1016.09 1016.17 1016.22 1016.23 1016.19 1016.09 1015.94 1015.73 1015.48 1015.17
1007.57 1007.92 1008.27 1008.61 1008.95 1009.31 1009.71 1010.16 1010.66 1011.20 1011.76 1012.31 1012.82 1013.25 1013.57 1013.79 1013.90 1013.93 1013.90 1013.83 1013.77 1013.75 1013.77 1013.85 1013.97 1014.14 1014.33 1014.54 1014.74 1014.93 1015.10 1015.26 1015.40 1015.52 1015.63 1015.71 1015.77 1015.78 1015.75 1015.66 1015.52 1015.31 1015.05
1006.53 1006.77 1007.02 1007.28 1007.58 1007.94 1008.37 1008.88 1009.46 1010.09 1010.75 1011.39 1011.97 1012.47 1012.84 1013.10 1013.23 1013.27 1013.25 1013.19 1013.14 1013.13 1013.16 1013.24 1013.38 1013.55 1013.75 1013.95 1014.15 1014.34 1014.51 1014.67 1014.82 1014.95 1015.08 1015.20 1015.29 1015.36 1015.38 1015.35 1015.26 1015.10 1014.88
1005.57 1005.68 1005.81 1005.99 1006.24 1006.57 1007.01 1007.55 1008.19 1008.89 1009.61 1010.32 1010.97 1011.52 1011.94 1012.23 1012.40 1012.47 1012.47 1012.44 1012.42 1012.43 1012.49 1012.60 1012.76 1012.95 1013.17 1013.38 1013.59 1013.78 1013.96 1014.12 1014.27 1014.42 1014.57 1014.71 1014.84 1014.94 1015.01 1015.03 1014.98 1014.87 1014.69
1004.77 1004.74 1004.76 1004.84 1005.02 1005.31 1005.73 1006.27 1006.92 1007.65 1008.42 1009.17 1009.85 1010.44 1010.90 1011.23 1011.44 1011.55 1011.60 1011.62 1011.65 1011.70 1011.80 1011.95 1012.14 1012.36 1012.59 1012.82 1013.04 1013.24 1013.42 1013.59 1013.75 1013.91 1014.08 1014.24 1014.40 1014.53 1014.64 1014.70 1014.70 1014.63 1014.49
1004.17 1004.02 1003.93 1003.91 1004.01 1004.24 1004.61 1005.12 1005.76 1006.48 1007.24 1007.99 1008.69 1009.30 1009.79 1010.16 1010.42 1010.59 1010.69 1010.78 1010.86 1010.97 1011.12 1011.31 1011.54 1011.78 1012.04 1012.28 1012.51 1012.71 1012.90 1013.07 1013.24 1013.41 1013.58 1013.77 1013.94 1014.11 1014.25 1014.34 1014.38 1014.35 1014.25
1003.78 1003.53 1003.34 1003.24 1003.25 1003.41 1003.71 1004.17 1004.75 1005.42 1006.15 1006.88 1007.56 1008.17 1008.68 1009.08 1009.39 1009.62 1009.79 1009.95 1010.10 1010.27 1010.47 1010.70 1010.95 1011.22 1011.47 1011.72 1011.94 1012.15 1012.33 1012.51 1012.68 1012.86 1013.05 1013.24 1013.44 1013.63 1013.79 1013.92 1013.99 1014.00 1013.94
1003.57 1003.25 1002.98 1002.79 1002.73 1002.81 1003.04 1003.41 1003.92 1004.52 1005.18 1005.86 1006.51 1007.10 1007.61 1008.05 1008.40 1008.69 1008.93 1009.15 1009.37 1009.59 1009.83 1010.09 1010.35 1010.62 1010.87 1011.10 1011.31 1011.51 1011.69 1011.86 1012.04 1012.23 1012.43 1012.65 1012.86 1013.07 1013.26 1013.42 1013.52 1013.57 1013.54
1003.47 1003.10 1002.77 1002.53 1002.40 1002.41 1002.56 1002.85 1003.26 1003.77 1004.34 1004.95 1005.54 1006.11 1006.62 1007.06 1007.45 1007.79 1008.09 1008.38 1008.64 1008.91 1009.17 1009.44 1009.70 1009.94 1010.17 1010.38 1010.57 1010.75 1010.93 1011.10 1011.29 1011.50 1011.72 1011.96 1012.21 1012.45 1012.66 1012.85 1012.98 1013.05 1013.06
1003.43 1003.02 1002.66 1002.38 1002.20 1002.14 1002.22 1002.41 1002.73 1003.14 1003.61 1004.13 1004.66 1005.18 1005.66 1006.11 1006.53 1006.90 1007.25 1007.57 1007.87 1008.15 1008.43 1008.69 1008.92 1009.14 1009.34 1009.53 1009.70 1009.87 1010.04 1010.23 1010.45 1010.69 1010.95 1011.23 1011.51 1011.79 1012.04 1012.25 1012.41 1012.52 1012.55
1003.39 1002.97 1002.59 1002.28 1002.06 1001.95 1001.95 1002.05 1002.27 1002.57 1002.94 1003.36 1003.81 1004.26 1004.71 1005.15 1005.56 1005.95 1006.32 1006.66 1006.98 1007.27 1007.54 1007.78 1007.99 1008.18 1008.36 1008.52 1008.69 1008.87 1009.07 1009.29 1009.56 1009.85 1010.17 1010.50 1010.84 1011.16 1011.45 1011.70 1011.89 1012.02 1012.07
1003.34 1002.91 1002.52 1002.20 1001.94 1001.78 1001.70 1001.72 1001.83 1002.02 1002.28 1002.59 1002.94 1003.32 1003.71 1004.11 1004.50 1004.89 1005.26 1005.60 1005.92 1006.21 1006.46 1006.69 1006.89 1007.06 1007.23 1007.40 1007.58 1007.80 1008.05 1008.34 1008.68 1009.05 1009.45 1009.86 1010.26 1010.64 1010.98 1011.26 1011.48 1011.62 1011.69
1003.26 1002.83 1002.44 1002.10 1001.82 1001.60 1001.46 1001.39 1001.39 1001.46 1001.59 1001.78 1002.02 1002.31 1002.62 1002.96 1003.32 1003.68 1004.03 1004.37 1004.68 1004.96 1005.21 1005.43 1005.63 1005.82 1006.01 1006.21 1006.45 1006.73 1007.06 1007.45 1007.88 1008.35 1008.85 1009.35 1009.83 1010.27 1010.65 1010.97 1011.21 1011.36 1011.42
1003.15 1002.74 1002.35 1002.00 1001.69 1001.42 1001.20 1001.03 1000.91 1000.85 1000.85 1000.91 1001.03 1001.21 1001.43 1001.70 1002.00 1002.32 1002.65 1002.98 1003.29 1003.58 1003.84 1004.08 1004.31 1004.54 1004.78 1005.05 1005.38 1005.75 1006.19 1006.69 1007.24 1007.82 1008.42 1009.01 1009.56 1010.06 1010.49 1010.83 1011.07 1011.22 1011.28
1003.03 1002.63 1002.25 1001.89 1001.55 1001.22 1000.92 1000.65 1000.41 1000.22 1000.07 999.99 999.98 1000.04 1000.17 1000.36 1000.60 1000.88 1001.19 1001.51 1001.83 1002.14 1002.44 1002.73 1003.02 1003.32 1003.65 1004.02 1004.46 1004.95 1005.51 1006.13 1006.79 1007.48 1008.17 1008.83 1009.45 1009.99 1010.44 1010.79 1011.03 1011.17 1011.20
1002.87 1002.50 1002.14 1001.77 1001.39 1001.01 1000.62 1000.24 999.88 999.55 999.26 999.04 998.90 998.85 998.88 998.99 999.19 999.44 999.75 1000.08 1000.44 1000.80 1001.16 1001.53 1001.91 1002.31 1002.75 1003.23 1003.78 1004.39 1005.07 1005.79 1006.55 1007.33 1008.08 1008.80 1009.45 1010.00 1010.46 1010.80 1011.02 1011.13 1011.13
1002.66 1002.34 1001.99 1001.61 1001.20 1000.76 1000.29 999.80 999.32 998.86 998.44 998.10 997.84 997.69 997.64 997.71 997.87 998.13 998.45 998.83 999.25 999.68 1000.14 1000.61 1001.10 1001.62 1002.17 1002.78 1003.43 1004.15 1004.91 1005.71 1006.53 1007.35 1008.14 1008.86 1009.51 1010.05 1010.48 1010.79 1010.97 1011.05 1011.00
1002.38 1002.09 1001.76 1001.38 1000.94 1000.44 999.89 999.31 998.72 998.15 997.63 997.18 996.85 996.63 996.54 996.59 996.76 997.05 997.42 997.87 998.38 998.92 999.49 1000.08 1000.69 1001.32 1001.99 1002.69 1003.44 1004.22 1005.04 1005.88 1006.71 1007.53 1008.29 1008.98 1009.58 1010.08 1010.46 1010.71 1010.85 1010.87 1010.79
1001.98 1001.73 1001.42 1001.03 1000.56 1000.01 999.40 998.74 998.07 997.43 996.83 996.33 995.95 995.72 995.63 995.70 995.92 996.27 996.74 997.29 997.91 998.57 999.27 999.98 1000.71 1001.45 1002.21 1002.99 1003.78 1004.60 1005.43 1006.25 1007.05 1007.82 1008.52 1009.14 1009.66 1010.08 1010.38 1010.57 1010.65 1010.62 1010.50
1001.45 1001.23 1000.92 1000.52 1000.02 999.44 998.78 998.07 997.36 996.68 996.06 995.55 995.18 994.97 994.94 995.08 995.39 995.84 996.42 997.10 997.85 998.64 999.46 1000.29 1001.12 1001.95 1002.78 1003.60 1004.42 1005.23 1006.02 1006.79 1007.52 1008.19 1008.80 1009.32 1009.74 1010.07 1010.29 1010.40 1010.42 1010.35 1010.19
Thickness
5783 5781 5779 5777 5775 5773 5770 5768 5766 5764 5762 5760 5758 5755 5753 5752 5750 5748 5745 5743 5741 5739 5737 5735 5732 5731 5729 5727 5725 5723 5720 5717 5712 5713 5712 5710 5708 5706 5704 5702 5700 5698 5696
5783 5780 5778 5776 5773 5771 5769 5767 5765 5762 5760 5758 5755 5753 5751 5750 5748 5746 5743 5742 5739 5736 5734 5732 5730 5729 5727 5725 5723 5721 5718 5716 5712 5709 5708 5706 5704 5702 5700 5698 5696 5695 5693
5781 5777 5775 5773 5771 5769 5767 5766 5763 5761 5758 5755 5752 5750 5748 5747 5745 5743 5741 5739 5737 5734 5732 5730 5728 5726 5724 5722 5720 5718 5716 5714 5711 5707 5705 5703 5700 5698 5696 5694 5692 5690 5689
5777 5774 5772 5771 5769 5767 5765 5763 5761 5758 5755 5752 5750 5748 5746 5744 5742 5740 5738 5736 5733 5731 5730 5728 5726 5724 5722 5720 5717 5715 5713 5709 5706 5703 5701 5698 5696 5694 5691 5689 5687 5686 5684
5772 5770 5769 5768 5767 5765 5762 5760 5758 5755 5753 5750 5747 5745 5743 5741 5739 5737 5735 5732 5729 5727 5725 5724 5723 5721 5719 5717 5715 5711 5708 5705 5702 5699 5696 5694 5692 5689 5688 5686 5683 5681 5679
5768 5766 5765 5763 5762 5760 5758 5755 5753 5751 5748 5745 5743 5740 5738 5738 5736 5733 5731 5728 5725 5722 5720 5719 5718 5717 5715 5713 5711 5708 5705 5702 5699 5696 5693 5690 5688 5686 5683 5681 5678 5675 5674
5764 5762 5761 5759 5757 5755 5753 5749 5747 5745 5743 5740 5738 5736 5734 5733 5732 5729 5727 5724 5721 5718 5715 5714 5713 5712 5709 5707 5705 5703 5700 5698 5696 5693 5690 5688 5685 5684 5680 5676 5673 5672 5670
5759 5757 5756 5755 5752 5750 5747 5744 5742 5740 5738 5735 5733 5731 5729 5728 5726 5724 5721 5718 5715 5713 5711 5709 5706 5704 5703 5700 5698 5696 5694 5693 5690 5689 5687 5685 5683 5680 5677 5674 5671 5667 5665
5753 5753 5752 5751 5748 5745 5742 5740 5737 5734 5732 5730 5728 5726 5724 5722 5721 5718 5715 5712 5709 5707 5705 5703 5701 5699 5696 5694 5691 5688 5687 5686 5685 5683 5681 5679 5677 5675 5672 5668 5665 5662 5660
5749 5748 5747 5745 5742 5740 5737 5735 5733 5730 5727 5725 5722 5720 5718 5716 5714 5711 5708 5705 5702 5700 5698 5696 5695 5692 5690 5687 5684 5682 5680 5679 5677 5676 5674 5672 5670 5668 5666 5663 5661 5657 5654
5744 5742 5740 5739 5737 5734 5732 5729 5727 5724 5720 5718 5716 5714 5712 5710 5708 5705 5702 5699 5695 5693 5690 5688 5687 5685 5683 5680 5678 5675 5674 5672 5670 5668 5666 5665 5663 5661 5659 5657 5655 5652 5649
5738 5736 5735 5733 5732 5730 5726 5722 5720 5717 5713 5710 5707 5705 5704 5702 5700 5698 5696 5693 5690 5686 5684 5682 5680 5678 5676 5674 5671 5669 5666 5664 5663 5660 5658 5657 5655 5654 5653 5651 5648 5646 5645
5730 5728 5727 5726 5724 5722 5719 5715 5712 5709 5706 5703 5700 5697 5696 5695 5693 5691 5689 5686 5683 5679 5677 5675 5673 5670 5668 5666 5664 5661 5659 5657 5655 5653 5651 5649 5648 5647 5645 5643 5641 5639 5637
5722 5719 5718 5717 5715 5713 5711 5709 5705 5702 5699 5696 5693 5691 5689 5688 5686 5685 5681 5678 5675 5672 5669 5667 5665 5662 5660 5658 5656 5653 5651 5649 5647 5645 5644 5642 5640 5638 5636 5635 5633 5631 5629
5713 5710 5709 5708 5706 5704 5702 5701 5699 5697 5694 5691 5688 5686 5683 5681 5680 5678 5675 5671 5668 5665 5662 5659 5657 5655 5653 5650 5648 5645 5642 5640 5638 5636 5635 5633 5632 5630 5628 5626 5623 5621 5620
5703 5701 5699 5698 5696 5695 5692 5690 5691 5689 5687 5685 5683 5680 5678 5676 5673 5670 5667 5664 5660 5657 5654 5652 5649 5647 5645 5643 5640 5638 5635 5633 5631 5628 5626 5624 5622 5621 5619 5617 5614 5613 5611
5696 5694 5692 5690 5688 5687 5684 5681 5679 5679 5678 5677 5675 5673 5671 5668 5665 5662 5659 5656 5653 5650 5647 5645 5642 5640 5638 5636 5634 5631 5628 5626 5623 5621 5618 5616 5614 5613 5611 5609 5607 5605 5603
5690 5688 5685 5684 5682 5679 5677 5675 5673 5671 5669 5668 5667 5665 5663 5660 5657 5655 5652 5648 5645 5643 5641 5638 5636 5634 5631 5629 5627 5624 5622 5619 5616 5613 5611 5609 5606 5604 5602 5601 5599 5597 5596
5682 5680 5678 5676 5674 5672 5670 5668 5666 5664 5662 5660 5659 5657 5655 5652 5649 5646 5644 5642 5640 5637 5635 5633 5630 5628 5626 5623 5620 5617 5614 5611 5608 5606 5603 5601 5599 5597 5595 5593 5592 5589 5587
5673 5672 5670 5668 5666 5664 5662 5661 5658 5656 5654 5653 5651 5650 5647 5643 5641 5639 5637 5636 5634 5631 5629 5626 5624 5621 5619 5616 5614 5611 5608 5605 5601 5598 5596 5594 5592 5589 5588 5586 5584 5583 5582
5664 5663 5662 5660 5658 5656 5654 5653 5651 5649 5647 5646 5644 5643 5640 5638 5636 5634 5632 5630 5628 5626 5623 5621 5618 5616 5613 5610 5607 5604 5601 5598 5594 5592 5589 5587 5585 5583 5581 5580 5578 5576 5575
5656 5654 5652 5650 5649 5647 5646 5645 5643 5641 5640 5639 5637 5636 5632 5630 5629 5627 5626 5624 5622 5620 5617 5614 5612 5609 5606 5602 5599 5596 5593 5590 5587 5584 5582 5580 5578 5576 5575 5573 5572 5571 5570
5648 5646 5644 5642 5641 5639 5638 5637 5636 5634 5634 5632 5631 5628 5626 5624 5622 5621 5620 5618 5616 5613 5610 5607 5604 5602 5598 5595 5592 5589 5585 5582 5580 5577 5575 5573 5571 5570 5568 5567 5567 5566 5565
5639 5638 5637 5635 5634 5633 5631 5631 5630 5628 5627 5625 5623 5622 5620 5618 5616 5615 5613 5611 5608 5605 5602 5599 5597 5594 5591 5588 5585 5582 5579 5575 5572 5570 5568 5567 5565 5564 5563 5562 5561 5560 5559
5631 5630 5629 5628 5627 5626 5625 5624 5623 5621 5620 5618 5616 5615 5613 5611 5609 5607 5604 5602 5599 5597 5594 5591 5589 5586 5583 5580 5577 5574 5571 5568 5565 5563 5561 5560 5559 5558 5556 5555 5554 5553 5552
5624 5623 5622 5621 5620 5619 5618 5617 5616 5614 5612 5610 5608 5607 5605 5603 5601 5598 5595 5593 5590 5588 5585 5583 5580 5577 5574 5572 5569 5566 5564 5561 5558 5555 5553 5552 5551 5550 5549 5548 5547 5545 5544